Location: Estes Park
(40.3770°N, 105.5210°W)
Time: 10:09:03
(UTC-06:00)

Vanguard 2 - Visible Passes

Search period start: 20 October 2017 00:00
Search period end: 30 October 2017 00:00
Orbit: 554 x 2939 km, 32.9° (Epoch: 19 October)

Date Brightness Start Highest point End Pass type
(mag) Time Alt. Az. Time Alt. Az. Time Alt. Az.
20 Oct 11.8 06:45:42 10° SSW 06:57:48 25° SSE 07:07:23 10° ESE visible
21 Oct 12.1 05:01:03 10° SSE 05:05:21 11° SE 05:09:25 10° SE visible
22 Oct 11.9 05:13:43 10° S 05:23:18 17° SE 05:31:54 10° ESE visible
23 Oct 11.7 05:28:56 10° S 05:41:14 24° SE 05:51:55 10° E visible
24 Oct 11.5 05:45:06 10° SSW 05:59:12 30° SSE 06:11:07 10° E visible
25 Oct 11.9 03:58:37 10° SSE 04:06:40 15° SE 04:14:29 10° ESE visible
25 Oct 11.3 06:01:51 10° SSW 06:17:12 37° SSE 06:29:52 10° E visible
26 Oct 11.7 04:13:07 10° S 04:24:26 21° SE 04:35:18 10° E visible
26 Oct 11.1 06:19:01 10° SW 06:35:14 44° SSE 06:48:23 10° E visible
27 Oct 11.5 04:28:55 10° SSW 04:42:13 28° SE 04:54:53 10° E visible
27 Oct 10.9 06:36:30 10° SW 06:53:19 51° SSE 07:06:44 10° E visible
28 Oct 11.8 02:46:06 10° SE 02:50:07 11° SE 02:54:12 10° ESE visible
28 Oct 11.3 04:45:25 10° SSW 05:00:03 34° SSE 05:13:54 10° E visible
28 Oct 10.8 06:54:13 10° SW 07:11:28 57° SSE 07:24:59 10° E visible
29 Oct 11.6 03:00:42 13° SSE 03:07:42 17° SE 03:17:12 10° ESE visible
29 Oct 11.1 05:02:22 10° SSW 05:17:57 41° SSE 05:32:34 10° E visible
